User: anonymous   Login
Location: Fort Wayne
(41.1310°N, 85.1290°W)
Time: 06:04:41
(UTC-04:00)
Language:

CZ-2C R/B - Orbit

View from above orbital plane
View from above orbital plane
View from above satellite
View from above satellite

Ground track
Ground track

The orbit data is extracted from the following two-line orbital elements,

1 36089U 09061B   16119.68329287 -.00000015  00000-0  76678-5 0  9991
2 36089  98.0535 133.9816 0080946 241.8320 231.6236 14.49569056341657
Epoch (UTC): 28 April 2016 16:23:56
Eccentricity: 0.0080946
inclination: 98.0535°
perigee height: 669 km
apogee height: 784 km
right ascension of ascending node: 133.9816°
argument of perigee: 241.8320°
revolutions per day: 14.49569056
mean anomaly at epoch: 231.6236°
orbit number at epoch: 34165

The dashed part of the orbit path shows where the satellite is in the earth's shadow,  

DLR